Location: Newark
(42.8481°N, 0.4872°E)
Time: 11:23:47
(UTC+00:00)

Explorer 7 - Pass Details

Date: 02 November 2020
Orbit: 484 x 678 km, 50.3° (Epoch: 03 December)

Event Time Altitude Azimuth Distance (km) Brightness Sun altitude
Rises 19:14:36 0° 283° (WNW) 2,632 11.6 -27.1°
Reaches altitude 10° 19:18:05 10° 250° (WSW) 1,783 10.2 -27.8°
Maximum altitude 19:19:32 12° 229° (SW) 1,693 9.8 -28.0°
Drops below altitude 10° 19:21:01 10° 208° (SSW) 1,819 9.7 -28.3°
Enters shadow 19:21:29 - 202° (SSW) 1,900 9.7 -28.4°
